Terminal Aerodrome Forecast
Issued by NWS Upton, NY

Home | Current Version | Previous Version | Text Only | Print | Product List | Glossary On
Versions: 1 2 3 4 5 6 7 8 9 10 11 12 13 14 15 16 17 18 19 20 21 22 23 24 25 26 27 28 29 30
000
FTUS41 KOKX 230531
TAFLGA
TAF
KLGA 230531Z 2306/2406 33014G22KT P6SM SKC
     FM231200 33012KT P6SM SKC
     FM231500 30010KT P6SM SKC
     FM231700 27010KT P6SM SKC
     FM231900 23013G18KT P6SM SKC
     FM240200 23008KT P6SM FEW250=

USA.gov is the U.S. government's official web portal to all federal, state and local government web resources and services.